TimeCST,TemperatureF,Dew PointF,Humidity,Sea Level PressureIn,VisibilityMPH,Wind Direction,Wind SpeedMPH,Gust SpeedMPH,PrecipitationIn,Events,Conditions,WindDirDegrees,DateUTC
12:53 AM,30.0,19.0,64,30.26,10.0,South,9.2,-,N/A,,Clear,190,2012-01-04 06:53:00
1:53 AM,30.2,19.4,64,30.22,10.0,South,8.1,-,N/A,,Clear,190,2012-01-04 07:53:00
2:53 AM,30.9,21.0,67,30.22,10.0,SSW,6.9,-,N/A,,Clear,200,2012-01-04 08:53:00
3:53 AM,30.0,21.0,69,30.20,10.0,SSW,8.1,-,N/A,,Clear,200,2012-01-04 09:53:00
4:53 AM,30.9,21.0,67,30.19,10.0,SSW,9.2,-,N/A,,Clear,200,2012-01-04 10:53:00
5:53 AM,30.0,21.9,72,30.19,10.0,SSW,6.9,-,N/A,,Clear,200,2012-01-04 11:53:00
6:53 AM,30.0,21.9,72,30.19,10.0,SSW,5.8,-,N/A,,Clear,200,2012-01-04 12:53:00
7:53 AM,30.0,21.9,72,30.18,10.0,SSW,6.9,-,N/A,,Clear,200,2012-01-04 13:53:00
8:53 AM,34.0,23.0,64,30.18,10.0,South,5.8,-,N/A,,Clear,190,2012-01-04 14:53:00
9:53 AM,37.9,24.1,57,30.17,10.0,SSW,10.4,-,N/A,,Clear,210,2012-01-04 15:53:00
10:53 AM,41.0,24.1,51,30.17,10.0,WSW,9.2,-,N/A,,Clear,240,2012-01-04 16:53:00
11:53 AM,44.1,25.0,47,30.13,10.0,WSW,10.4,-,N/A,,Clear,250,2012-01-04 17:53:00
12:53 PM,46.0,25.0,44,30.11,10.0,SW,6.9,-,N/A,,Clear,230,2012-01-04 18:53:00
1:53 PM,48.0,26.1,42,30.10,10.0,SSW,5.8,-,N/A,,Clear,210,2012-01-04 19:53:00
2:53 PM,48.9,28.0,44,30.10,10.0,South,8.1,-,N/A,,Clear,190,2012-01-04 20:53:00
3:53 PM,48.0,28.9,48,30.12,10.0,SSW,5.8,-,N/A,,Clear,200,2012-01-04 21:53:00
4:53 PM,42.1,30.0,62,30.15,10.0,SSW,3.5,-,N/A,,Clear,200,2012-01-04 22:53:00
5:53 PM,37.9,30.0,73,30.18,10.0,Calm,Calm,-,N/A,,Clear,0,2012-01-04 23:53:00
6:53 PM,37.0,28.9,73,30.20,10.0,Calm,Calm,-,N/A,,Clear,0,2012-01-05 00:53:00
7:53 PM,30.9,27.0,85,30.21,10.0,Calm,Calm,-,N/A,,Clear,0,2012-01-05 01:53:00
8:53 PM,28.9,25.0,85,30.22,10.0,SW,3.5,-,N/A,,Clear,230,2012-01-05 02:53:00
9:53 PM,28.9,26.1,89,30.23,10.0,Calm,Calm,-,N/A,,Clear,0,2012-01-05 03:53:00
10:53 PM,32.0,27.0,82,30.21,10.0,WSW,3.5,-,N/A,,Clear,240,2012-01-05 04:53:00
11:53 PM,32.0,28.0,85,30.20,10.0,Calm,Calm,-,N/A,,Clear,0,2012-01-05 05:53:00